When you browse on this site, cookies collect data to enhance your experience and personalize the content and advertising you see.
Visit our Privacy Policy to learn more. By continuing to use the site, you agree to this use of cookies and data.
  • In Hungary
  • List of Countries
  • For 7 days
  • Water Temperature
  • Weather Map
  • News
  • Weather Widgets
  • user-avatar
    Login

    Hourly Weather Yavoriv

    Today, 8 December, Sunday

    Time Temperature Precipitation Wind Pressure Humidity
    00:00 0°C° 0 mm 5 mps 697 mmHg 82%
    01:00 0°C° 0 mm 5 mps 697 mmHg 83%
    02:00 -1°C° 0 mm 2 mps 697 mmHg 95%
    03:00 +1°C° 0 mm 2 mps 697 mmHg 92%
    04:00 0°C° 0 mm 4 mps 697 mmHg 86%
    05:00 0°C° 0 mm 4 mps 697 mmHg 84%
    06:00 0°C° 0 mm 4 mps 697 mmHg 82%
    07:00 0°C° 0 mm 4 mps 698 mmHg 82%
    08:00 0°C° 0 mm 4 mps 698 mmHg 83%
    09:00 0°C° 0 mm 4 mps 699 mmHg 84%
    10:00 0°C° 0 mm 4 mps 698 mmHg 86%
    11:00 +1°C° 0 mm 4 mps 699 mmHg 85%
    12:00 +3°C° 0 mm 4 mps 698 mmHg 84%
    13:00 +4°C° 0 mm 4 mps 698 mmHg 83%
    14:00 +3°C° 0 mm 3 mps 698 mmHg 75%
    15:00 +3°C° 0 mm 3 mps 697 mmHg 87%
    16:00 +1°C° 0 mm 4 mps 696 mmHg 85%
    17:00 +1°C° 0 mm 4 mps 696 mmHg 79%
    18:00 +1°C° 0 mm 4 mps 696 mmHg 79%
    19:00 +1°C° 0 mm 4 mps 696 mmHg 78%
    20:00 +2°C° 0 mm 6 mps 696 mmHg 80%
    21:00 +2°C° 0 mm 7 mps 696 mmHg 79%
    22:00 +2°C° 0 mm 7 mps 695 mmHg 81%
    23:00 +1°C° 0 mm 9 mps 695 mmHg 82%

    Tomorrow, 9 December, Monday

    Time Temperature Precipitation Wind Pressure Humidity
    00:00 +2°C° 0 mm 9 mps 694 mmHg 82%
    01:00 +2°C° 0 mm 9 mps 694 mmHg 81%
    02:00 +2°C° 0 mm 9 mps 694 mmHg 81%
    03:00 +2°C° 0 mm 9 mps 694 mmHg 81%
    04:00 +2°C° 0 mm 9 mps 693 mmHg 80%
    05:00 +2°C° 0 mm 9 mps 693 mmHg 80%
    06:00 +2°C° 0 mm 8 mps 693 mmHg 80%
    07:00 +3°C° 0 mm 7 mps 693 mmHg 80%
    08:00 +3°C° 0 mm 7 mps 693 mmHg 81%
    09:00 +4°C° 0 mm 6 mps 693 mmHg 81%
    10:00 +4°C° 0 mm 6 mps 693 mmHg 81%
    11:00 +6°C° 0 mm 5 mps 693 mmHg 83%
    12:00 +7°C° 0 mm 4 mps 693 mmHg 83%
    13:00 +7°C° 0 mm 4 mps 693 mmHg 85%
    14:00 +7°C° 0 mm 4 mps 693 mmHg 87%
    15:00 +7°C° 0 mm 3 mps 693 mmHg 88%
    16:00 +6°C° 0 mm 2 mps 693 mmHg 93%
    17:00 +5°C° 0 mm 2 mps 693 mmHg 94%
    18:00 +5°C° 0 mm 2 mps 693 mmHg 93%
    19:00 +5°C° 0 mm 2 mps 693 mmHg 91%
    20:00 +5°C° 0 mm 2 mps 693 mmHg 91%
    21:00 +5°C° 0 mm 2 mps 694 mmHg 91%
    22:00 +4°C° 0 mm 2 mps 694 mmHg 91%
    23:00 +4°C° 0 mm 2 mps 694 mmHg 92%

    Day after tomorrow, 10 December, Tuesday

    Time Temperature Precipitation Wind Pressure Humidity
    00:00 +4°C° 0 mm 2 mps 694 mmHg 92%
    01:00 +4°C° 0 mm 2 mps 694 mmHg 92%
    02:00 +5°C° 0 mm 1 mps 694 mmHg 91%
    03:00 +5°C° 0 mm 1 mps 694 mmHg 90%
    04:00 +5°C° 0 mm 1 mps 694 mmHg 89%
    05:00 +5°C° 0 mm 1 mps 694 mmHg 89%
    06:00 +5°C° 0 mm 1 mps 695 mmHg 87%
    07:00 +6°C° 0 mm 1 mps 695 mmHg 85%
    08:00 +6°C° 0 mm 1 mps 695 mmHg 85%
    09:00 +6°C° 0 mm 1 mps 696 mmHg 86%
    10:00 +5°C° 0 mm 0 mps 696 mmHg 88%
    11:00 +6°C° 0 mm 1 mps 696 mmHg 95%
    12:00 +7°C° 0 mm 1 mps 697 mmHg 95%
    13:00 +6°C° 0 mm 2 mps 697 mmHg 99%
    14:00 +5°C° 0 mm 2 mps 697 mmHg 100%
    15:00 +4°C° 0 mm 2 mps 697 mmHg 100%
    16:00 +4°C° 0.1 mm 2 mps 697 mmHg 100%
    17:00 +4°C° 0.3 mm 2 mps 697 mmHg 100%
    18:00 +2°C° 0.4 mm 3 mps 698 mmHg 100%
    19:00 +1°C° 0.3 mm 3 mps 698 mmHg 100%
    20:00 +1°C° 0.5 mm 3 mps 699 mmHg 100%
    21:00 0°C° 0.4 mm 3 mps 699 mmHg 100%
    22:00 0°C° 0.3 mm 3 mps 699 mmHg 100%
    23:00 0°C° 0.5 mm 3 mps 700 mmHg 100%

    11 December, Wednesday

    Time Temperature Precipitation Wind Pressure Humidity
    00:00 -1°C° 0.6 mm 3 mps 700 mmHg 100%
    01:00 -1°C° 0.5 mm 3 mps 699 mmHg 100%
    02:00 -1°C° 0.5 mm 3 mps 700 mmHg 100%
    03:00 -1°C° 0.5 mm 2 mps 700 mmHg 100%
    04:00 -1°C° 0.3 mm 2 mps 699 mmHg 100%
    05:00 +1°C° 0.1 mm 1 mps 700 mmHg 100%
    06:00 +1°C° 0 mm 1 mps 700 mmHg 100%
    07:00 0°C° 0.1 mm 0 mps 700 mmHg 100%
    08:00 0°C° 0.1 mm 0 mps 700 mmHg 100%
    09:00 0°C° 0 mm 0 mps 700 mmHg 100%
    10:00 +1°C° 0 mm 1 mps 700 mmHg 100%
    11:00 +1°C° 0 mm 1 mps 700 mmHg 100%
    12:00 +1°C° 0 mm 1 mps 700 mmHg 100%
    13:00 +1°C° 0 mm 2 mps 700 mmHg 100%
    14:00 +1°C° 0 mm 2 mps 700 mmHg 100%
    15:00 +2°C° 0 mm 2 mps 699 mmHg 100%
    16:00 +2°C° 0 mm 2 mps 699 mmHg 100%
    17:00 +1°C° 0 mm 2 mps 698 mmHg 100%
    18:00 +1°C° 0 mm 2 mps 698 mmHg 100%
    19:00 +1°C° 0 mm 2 mps 698 mmHg 100%
    20:00 -1°C° 0 mm 2 mps 698 mmHg 100%
    21:00 +1°C° 0 mm 2 mps 698 mmHg 97%
    22:00 +1°C° 0 mm 2 mps 697 mmHg 95%
    23:00 +1°C° 0 mm 2 mps 697 mmHg 93%

    12 December, Thursday

    Time Temperature Precipitation Wind Pressure Humidity
    00:00 +1°C° 0 mm 2 mps 697 mmHg 94%
    01:00 -1°C° 0 mm 3 mps 696 mmHg 95%
    02:00 0°C° 0 mm 3 mps 696 mmHg 95%
    03:00 0°C° 0 mm 3 mps 696 mmHg 94%
    04:00 0°C° 0 mm 3 mps 696 mmHg 93%
    05:00 +1°C° 0 mm 2 mps 696 mmHg 92%
    06:00 +1°C° 0 mm 2 mps 695 mmHg 91%
    07:00 +1°C° 0 mm 2 mps 695 mmHg 92%
    08:00 -1°C° 0 mm 2 mps 695 mmHg 96%
    09:00 0°C° 0 mm 3 mps 695 mmHg 94%
    10:00 0°C° 0 mm 4 mps 695 mmHg 91%
    11:00 +2°C° 0 mm 3 mps 695 mmHg 90%
    12:00 +3°C° 0 mm 3 mps 695 mmHg 90%
    13:00 +5°C° 0 mm 2 mps 695 mmHg 91%
    14:00 +5°C° 0 mm 2 mps 695 mmHg 92%

    13 December, Friday

    Time Temperature Precipitation Wind Pressure Humidity
    Show more